Location: Home
(42.5358°N, 72.7383°W)
Time: 03:32:02
(UTC-04:00)

Vanguard 1 - Pass Details

Date: 29 May 2022
Orbit: 649 x 3832 km, 34.2° (Epoch: 24 June)

Event Time Altitude Azimuth Distance (km) Brightness Sun altitude
Exits shadow 01:55:05 27° 228° (SW) 3,600 12.4 -24.0°
Maximum altitude 02:03:54 59° 161° (SSE) 3,172 12.3 -23.5°
Drops below altitude 10° 02:24:57 10° 90° (E) 6,856 14.6 -22.1°
Sets 02:30:42 0° 88° (E) 7,973 15.1 -21.6°
